GPS BIIRM-1 (PRN 17)

Last updated on Sun Nov 16 2025 00:04:22 GMT+0000 (Coordinated Universal Time)

1 28874U 05038A 25319.46492192 -.00000071 00000+0 00000+0 0 9999 2 28874 55.0564 281.7988 0133261 292.9291 64.9224 2.00550058147542
UTC large
Height (km)
Speed (km/s)
/
Latitude / Longitude
Inclination (degrees)
Orbital Period (minutes)
Azimuth
Elevation
Range (km)
Doppler Factor

Next 0 passes for location: London (51.5072 / 0.1276)

Sorry there are no passes over London.